NOAA 16 DEB, 41354

Orbit data source: Space-Track

NOAA 16 DEB, 41354 is space debris in SSO originally from a launch on Thu, 21 Sep 2000 UTC launched from the Air Force Western Test Range (AFWTR). Debris objects in space refer to the collection of defunct objects orbiting the Earth. Examples of debris include non-operational satellites, rocket bodies, and fragments generated from explosions, collisions, or faulty payload assembly.

Loading next visibility...
Identifier
41354, 2000-055HX
Orbit
SSO
Country
Flag of USUS
Related business
Manufacturer
Unknown
Mission
Spacecraft
Bus & Motor
Unknown
Mass
Unknown
Launch date (UTC)
2000-09-21 (26 years ago)
Launch vehicle
Unknown
Launch site
Air Force Western Test Range (AFWTR)
Object type
Payload
Rocket body
Debris
Shape & HBR
Unknown shape, 0.1 m
Radar Cross Section
Small (<0.1 m²)

Expand to show TLE details & history
Last TLE update: 9 hours ago

TLE from 9 hours ago
0 NOAA 16 DEB
1 41354U 00055HX  26126.41865447  .00002546  00000-0  11413-2 0  9992
2 41354  98.6568 180.4262 0021764 193.2648 166.7960 14.23259502529821
Epoch: 2026-05-06T10:02Z
TLE epoch observation values (Epoch: 2026-05-06T10:02:51.746Z)
Latitude
-0.00009°
Longitude
165.43118°
Altitude
832.516 km
Speed
7.429 km/s
True Right ascension
12h 01m 42s
True Declination
0° 00' 00"
Sunlit
Object was in full shadow at epoch
Visualization orbit readout
Latitude
Unknown
Longitude
Unknown
Altitude
Unknown
Speed
Unknown
Apparent Right ascension
Unknown
Apparent Declination
Unknown
Sunlit
N/A
Visualization observer readout
Local Sidereal Time
02:51:10
Azimuth
Unknown
Elevation
Unknown
Doppler factor
Unknown
Orbital elements
Apogee altitude
827.15 km
Perigee altitude
795.855 km
Semi-major axis
7,189.639 km
Eccentricity
0.00218
Inclination
98.6568°
RAAN
180.4262°
Arg. of periapsis
193.2648°
True anomaly
166.85282°
Mean anomaly
166.796°
Eccentric anomaly
166.82442°
Mean motion
3.56027 °/min
Orbital period
101.12 mins
BSTAR
0.0011413
Loading maneuver chart data...
Computing Atmospheric mass density...
Loading historical data...
Loading historical data...
Loading historical data...
Loading historical data...
Loading historical data...
Loading historical data...
Loading historical data...

Documentation

Showing up to 5 results
|